Hourly Weather Kumasi

Today, 25 October, Sunday

Time Temperature Precipitation Wind Pressure Humidity
00:00 +27°C° 0 mm 2 mps 755 mmHg 88%
01:00 +27°C° 0 mm 2 mps 755 mmHg 89%
02:00 +27°C° 0 mm 2 mps 754 mmHg 90%
03:00 +26°C° 0 mm 2 mps 754 mmHg 91%
04:00 +26°C° 0 mm 2 mps 754 mmHg 91%
05:00 +26°C° 0 mm 2 mps 754 mmHg 92%
06:00 +26°C° 0 mm 2 mps 754 mmHg 93%
07:00 +27°C° 0 mm 2 mps 755 mmHg 88%
08:00 +29°C° 0 mm 3 mps 755 mmHg 82%
09:00 +30°C° 0 mm 3 mps 755 mmHg 77%
10:00 +31°C° 0 mm 3 mps 755 mmHg 70%
11:00 +34°C° 0 mm 3 mps 755 mmHg 63%
12:00 +35°C° 0 mm 3 mps 754 mmHg 56%
13:00 +35°C° 0.2 mm 3 mps 754 mmHg 59%
14:00 +34°C° 0.2 mm 4 mps 753 mmHg 62%
15:00 +34°C° 0.2 mm 4 mps 753 mmHg 64%
16:00 +32°C° 1.1 mm 4 mps 753 mmHg 71%
17:00 +30°C° 1.1 mm 4 mps 753 mmHg 78%
18:00 +28°C° 1.1 mm 4 mps 754 mmHg 84%
19:00 +28°C° 0 mm 3 mps 754 mmHg 86%
20:00 +28°C° 0 mm 3 mps 755 mmHg 87%
21:00 +27°C° 0 mm 2 mps 756 mmHg 88%
22:00 +27°C° 0 mm 2 mps 755 mmHg 89%
23:00 +27°C° 0 mm 2 mps 755 mmHg 90%

Tomorrow, 26 October, Monday

Time Temperature Precipitation Wind Pressure Humidity
00:00 +27°C° 0 mm 2 mps 755 mmHg 91%
01:00 +27°C° 0 mm 2 mps 755 mmHg 91%
02:00 +27°C° 0 mm 2 mps 754 mmHg 91%
03:00 +27°C° 0 mm 2 mps 754 mmHg 92%
04:00 +26°C° 0 mm 2 mps 754 mmHg 93%
05:00 +26°C° 0 mm 2 mps 754 mmHg 93%
06:00 +26°C° 0 mm 2 mps 755 mmHg 94%
07:00 +28°C° 0 mm 2 mps 755 mmHg 88%
08:00 +29°C° 0 mm 2 mps 755 mmHg 82%
09:00 +31°C° 0 mm 3 mps 756 mmHg 76%
10:00 +32°C° 0 mm 2 mps 755 mmHg 71%
11:00 +34°C° 0 mm 2 mps 755 mmHg 65%
12:00 +35°C° 0 mm 2 mps 754 mmHg 60%
13:00 +35°C° 0.3 mm 2 mps 753 mmHg 62%
14:00 +34°C° 0.3 mm 3 mps 753 mmHg 64%
15:00 +34°C° 0.3 mm 3 mps 752 mmHg 65%
16:00 +31°C° 0.4 mm 3 mps 753 mmHg 72%
17:00 +30°C° 0.4 mm 3 mps 753 mmHg 78%
18:00 +28°C° 0.4 mm 3 mps 753 mmHg 85%
19:00 +28°C° 0 mm 3 mps 754 mmHg 86%
20:00 +28°C° 0 mm 2 mps 754 mmHg 87%
21:00 +27°C° 0 mm 2 mps 755 mmHg 88%
22:00 +27°C° 0 mm 2 mps 755 mmHg 89%
23:00 +27°C° 0 mm 2 mps 755 mmHg 90%

Day after tomorrow, 27 October, Tuesday

Time Temperature Precipitation Wind Pressure Humidity
00:00 +27°C° 0 mm 2 mps 754 mmHg 91%
01:00 +27°C° 0 mm 2 mps 754 mmHg 91%
02:00 +27°C° 0 mm 2 mps 754 mmHg 92%
03:00 +27°C° 0 mm 2 mps 754 mmHg 92%
04:00 +27°C° 0 mm 2 mps 754 mmHg 92%
05:00 +26°C° 0 mm 2 mps 754 mmHg 93%
06:00 +26°C° 0 mm 2 mps 755 mmHg 93%
07:00 +28°C° 0 mm 2 mps 755 mmHg 87%
08:00 +29°C° 0 mm 2 mps 755 mmHg 82%
09:00 +30°C° 0 mm 3 mps 756 mmHg 77%
10:00 +31°C° 0 mm 2 mps 755 mmHg 72%
11:00 +32°C° 0 mm 2 mps 754 mmHg 68%
12:00 +34°C° 0 mm 2 mps 754 mmHg 63%
13:00 +34°C° 0.4 mm 2 mps 753 mmHg 63%
14:00 +34°C° 0.4 mm 3 mps 753 mmHg 64%
15:00 +34°C° 0.4 mm 3 mps 752 mmHg 64%
16:00 +31°C° 0.7 mm 3 mps 753 mmHg 70%
17:00 +30°C° 0.7 mm 3 mps 753 mmHg 77%
18:00 +28°C° 0.7 mm 3 mps 753 mmHg 84%
19:00 +28°C° 0 mm 3 mps 754 mmHg 85%
20:00 +28°C° 0 mm 3 mps 754 mmHg 86%
21:00 +27°C° 0 mm 3 mps 755 mmHg 88%
22:00 +27°C° 0 mm 3 mps 755 mmHg 88%
23:00 +27°C° 0 mm 2 mps 755 mmHg 89%

28 October, Wednesday

Time Temperature Precipitation Wind Pressure Humidity
00:00 +27°C° 0 mm 2 mps 755 mmHg 90%
01:00 +27°C° 0 mm 2 mps 754 mmHg 91%
02:00 +26°C° 0 mm 2 mps 754 mmHg 91%
03:00 +26°C° 0 mm 2 mps 754 mmHg 92%
04:00 +26°C° 0.1 mm 2 mps 754 mmHg 92%
05:00 +26°C° 0.1 mm 2 mps 754 mmHg 93%
06:00 +26°C° 0.1 mm 2 mps 755 mmHg 93%
07:00 +28°C° 0 mm 2 mps 755 mmHg 86%
08:00 +29°C° 0 mm 2 mps 755 mmHg 79%
09:00 +31°C° 0 mm 2 mps 756 mmHg 72%
10:00 +32°C° 0 mm 2 mps 755 mmHg 66%
11:00 +35°C° 0 mm 2 mps 755 mmHg 60%
12:00 +35°C° 0 mm 1 mps 755 mmHg 54%
13:00 +36°C° 0.1 mm 2 mps 754 mmHg 55%
14:00 +35°C° 0.1 mm 2 mps 753 mmHg 56%
15:00 +34°C° 0.1 mm 3 mps 753 mmHg 58%
16:00 +33°C° 0.1 mm 3 mps 753 mmHg 65%
17:00 +30°C° 0.1 mm 3 mps 754 mmHg 72%
18:00 +29°C° 0.1 mm 3 mps 754 mmHg 79%
19:00 +28°C° 0 mm 3 mps 754 mmHg 81%
20:00 +28°C° 0 mm 2 mps 755 mmHg 83%
21:00 +28°C° 0 mm 2 mps 755 mmHg 85%
22:00 +27°C° 0.2 mm 2 mps 755 mmHg 86%
23:00 +27°C° 0.2 mm 2 mps 755 mmHg 87%

29 October, Thursday

Time Temperature Precipitation Wind Pressure Humidity
00:00 +27°C° 0.2 mm 2 mps 755 mmHg 88%
01:00 +27°C° 0 mm 2 mps 755 mmHg 88%
02:00 +27°C° 0 mm 2 mps 754 mmHg 88%
03:00 +26°C° 0 mm 2 mps 754 mmHg 89%
04:00 +26°C° 0 mm 2 mps 754 mmHg 89%
05:00 +26°C° 0 mm 2 mps 755 mmHg 89%
06:00 +26°C° 0 mm 1 mps 755 mmHg 89%
07:00 +28°C° 0 mm 2 mps 755 mmHg 82%
08:00 +29°C° 0 mm 2 mps 756 mmHg 75%
09:00 +31°C° 0 mm 2 mps 756 mmHg 68%
10:00 +32°C° 0 mm 2 mps 756 mmHg 63%
11:00 +35°C° 0 mm 2 mps 755 mmHg 58%
12:00 +36°C° 0 mm 2 mps 755 mmHg 53%
13:00 +36°C° 0 mm 2 mps 754 mmHg 55%
14:00 +35°C° 0 mm 3 mps 754 mmHg 57%
15:00 +34°C° 0 mm 4 mps 753 mmHg 59%
16:00 +33°C° 0.1 mm 3 mps 754 mmHg 65%
17:00 +30°C° 0.1 mm 3 mps 754 mmHg 72%
18:00 +29°C° 0.1 mm 3 mps 754 mmHg 78%
19:00 +28°C° 0 mm 3 mps 755 mmHg 80%
20:00 +28°C° 0 mm 2 mps 755 mmHg 82%
21:00 +28°C° 0 mm 2 mps 756 mmHg 84%
22:00 +28°C° 0 mm 2 mps 756 mmHg 85%
23:00 +27°C° 0 mm 2 mps 756 mmHg 87%

30 October, Friday

Time Temperature Precipitation Wind Pressure Humidity
00:00 +27°C° 0 mm 2 mps 756 mmHg 88%
01:00 +27°C° 0 mm 2 mps 755 mmHg 89%
02:00 +27°C° 0 mm 2 mps 755 mmHg 91%
03:00 +27°C° 0 mm 2 mps 755 mmHg 92%
04:00 +26°C° 0 mm 2 mps 755 mmHg 92%
05:00 +26°C° 0 mm 1 mps 755 mmHg 93%
06:00 +26°C° 0 mm 1 mps 755 mmHg 93%
07:00 +28°C° 0 mm 2 mps 756 mmHg 85%
08:00 +29°C° 0 mm 2 mps 756 mmHg 78%
09:00 +31°C° 0 mm 3 mps 757 mmHg 70%
10:00 +32°C° 0 mm 2 mps 756 mmHg 65%
11:00 +34°C° 0 mm 2 mps 756 mmHg 60%
12:00 +36°C° 0 mm 2 mps 755 mmHg 55%
13:00 +35°C° 0.1 mm 2 mps 755 mmHg 56%
14:00 +35°C° 0.1 mm 3 mps 754 mmHg 57%
15:00 +34°C° 0.1 mm 3 mps 753 mmHg 58%
16:00 +33°C° 0.1 mm 3 mps 754 mmHg 66%
17:00 +30°C° 0.1 mm 3 mps 754 mmHg 73%
18:00 +29°C° 0.1 mm 3 mps 754 mmHg 80%
19:00 +28°C° 0 mm 3 mps 755 mmHg 82%
20:00 +28°C° 0 mm 3 mps 755 mmHg 84%
21:00 +28°C° 0 mm 2 mps 756 mmHg 86%
22:00 +28°C° 0 mm 2 mps 756 mmHg 87%
23:00 +27°C° 0 mm 2 mps 756 mmHg 88%
Show more